Погода в Мурманске

Поиск расширенной информации на нашем сайте:

Полезная информация:

Новости сайта



02.01.2020
Опубликован Долгосрочный прогноз погоды по городам России и ближнего зарубежья на январь 2020 года.
Карты: Прогноз на январь и февраль 2020 года, Сравнение прогнозируемой аномалии приземной температуры воздуха на январь 2020 года по разным моделям.




Погода в Мурманске - сегодня

Время (UTC), дата Ветер
(°,м/с) 
Видим.   Явления Облачность Т
(°С)
Тd
(°С)
f(%) Тe
(°С)
Pmin
(гПа)
dP
(гПа)
Po
(мм)
O2
(г/м3)
Тmin Tmax R s Состояние
почвы
03 04.08.20 200 (Ю) 1-2  20000 м  в посл. час ливневой дождь  9/4 600 м кучево-дожд., средняя 
[Cb cap|Ac As]
+10 +9.2 95 +11  1004.4  749  289  +9.5    0.0     
06 04.08.20 180 (Ю) 2-3  20000 м  {ливн. осадки}  10/9 300 м кучево-дожд., средняя 
[Cb cap|Ac und]
+11.8 +9.3 85 +12  1004.3  749  288  +9.5    0.0    влажная 
09 04.08.20 250 (З) 1-3  20000 м    8/6 300 м кучево-дожд., средняя 
[Cb cap|Ac trans]
+16.1 +10.4 69 +19  1004.4  0.2  749  283           
12 04.08.20 220 (ЮЗ) 3-6{06}  20000 м    4/3 600 м средняя, верхняя 
[Cu hum|Ac trans|Ci fib]
+20.7 +9.9 50 +22  1003.8  -0.5  749  279           
15 04.08.20 190 (Ю) 4-6{07}  20000 м    4/3 600 м средняя 
[Cu med, cong|Ac trans]
+21 +8.1 43 +21  1003.9  0.1  749  279           
18 04.08.20 190 (Ю) 2-3{06}  20000 м    5/3 600 м средняя, верхняя 
[Cu Sc|Ac trans|Ci fib]
+18.3 +10.1 59 +20  1004.5  0.5  749  281    +22       
21 04.08.20 210 (ЮЗ) 3-3  20000 м  слаб. ливневой дождь  4/4 600 м кучево-дожд. 
[Cb cap]
+14.3 +11.4 83 +17  1005.2  0.6  749  285           
00 05.08.20 210 (ЮЗ) 4-5{06}  20000 м  {ливн. осадки}  9/8 600 м кучево-дожд., средняя 
[Cb cap|Ac trans]
+14.2 +11.7 85 +17  1005.5  0.3  750  285           
03 05.08.20 200 (Ю) 4-5{06}  20000 м  в посл. час ливневой дождь  9/4 600 м кучево-дожд., средняя, верхняя 
[Cb cap|Ac trans|Ci fib]
+14.5 +13.1 91 +20  1005.9  0.4  750  284  +13.4    0.3     
06 05.08.20 190 (Ю) 3-5{06}  20000 м  {ливн. осадки}  8/5 600 м кучево-дожд., средняя, верхняя 
[Cb cap|Ac lent|Ci ing]
+18.6 +12.8 69 +24  1005.7  -0.1  750  280  +13.4    0.3    влажная 
09 05.08.20 190 (Ю) 3-4{07}  20000 м  в посл. час ливневой дождь  9/8 600 м кучево-дожд., верхняя 
[Cb cap|Ci ing]
+18.6 +12.2 66 +23  1005.6  -0.1  750  281           
12 05.08.20 190 (Ю) 2-3{10}  20000 м  {гроза, ливн. осадки}  9/8 600 м кучево-дожд., верхняя 
[Cb cap|Ci ing]
+20 +12.4 62 +25  1005.2  -0.4  749  279           
15 05.08.20 180 (Ю) 4-5{07}  20000 м  слаб. ливневой дождь  9/8 600 м кучево-дожд., верхняя 
[Cb cap|Ci fib]
+18.7 +11 61 +22  1005  -0.2  749  281         
18 05.08.20 350 (С) 4-5{09}  20000 м  в посл. час ливневой дождь  9/8 600 м кучево-дожд., верхняя 
[Cb cap|Ci fib]
+13.2 +12.1 93 +17  1006.3  1.2  750  286    +21.6     
21 05.08.20 020 (С) 4-6{06}  20000 м  в посл. час ливневой дождь  10/10 200 м кучево-дожд. 
[Cb cap]
+11.7 +10.9 95 +13  1007.1  0.8  751  288           
00 06.08.20 010 (С) 3-5{07}  20000 м  {ливн. осадки}  10/10 100 м кучево-дожд. 
[Cb cap]
+10.7 +9.9 95 +11  1008.8  1.6  752  290           
03 06.08.20 350 (С) 3-4{06}  2000 м  дымка{ливн. осадки}  10/10 100 м кучево-дожд. 
[Cb cap]
+10.6 +9.8 95 +11  1010.5  1.7  753  290  +10.5       
06 06.08.20 020 (С) 3-4{05}  10 км  в посл. час ливневой дождь  10/10 200 м кучево-дожд. 
[Cb cap]
+10.8 +10 95 +11  1012.6  2.1  755  291  +10.4    0.3    влажная 
09 06.08.20 010 (С) 2-4{05}  20000 м    10/10 300 м кучево-дожд. 
[Cb cap]
+12.4 +9.8 84 +14  1014.6  756  290           
12 06.08.20 320 (СЗ) 2-4{05}  20000 м    10/10 300 м кучево-дожд. 
[Cb cap]
+13.3 +9.9 80 +15  1016.4  1.8  758  289           
15 06.08.20 210 (ЮЗ) 1-2  20000 м    10/10 600 м кучево-дожд. 
[Cb cap]
+14.2 +9.9 75 +16  1017.5  1.1  759  289      0.0     
18 06.08.20 210 (ЮЗ) 2-3  20000 м    9/9 600 м 
[Sc]
+13.9 +11.1 83 +16  1017.8  0.3  759  289    +14.4       
21 06.08.20 200 (Ю) 3-4  20000 м    8/0 средняя, верхняя 
[Ac lent|Ci fib]
+11.5 +10.1 91 +12  1018.2  0.4  759  292           
00 07.08.20 210 (ЮЗ) 4-5{06}  10 км    9/0 средняя, верхняя 
[Ac lent|Ci fib]
+10.6 +9.7 94 +11  1018.1  -0.1  759  293           
03 07.08.20 200 (Ю) 5-7{08}  20000 м    9/3 600 м средняя, верхняя 
[Cu med, cong|Ac lent|Ci sp]
+11.6 +10.2 91 +12  1017.6  -0.5  759  291  +10.4         
Время (UTC), дата Ветер
(°,м/с) 
Видим.   Явления Облачность Т
(°С)
Тd
(°С)
f(%) Тe
(°С)
Pmin
(гПа)
dP
(гПа)
Po
(мм)
O2
(г/м3)
Тmin Tmax R s Состояние
почвы

Для получения пояснительной информации подведите курсор к названию столбца.

ПОГОДА в Мурманске - архив

Всё, что Вы хотите узнать о погоде в Мурманске - удобно и подробно!

Выберите нужную дату (начиная с 1 января 2019* года) и нажмите кнопку "Найти".
Будут отображены архивные сводки погоды по пункту Мурманск, начиная с указанной даты.


Отображать данные в формате CSV (для использования в таблицах Excel)


Внимание! Наш архив погоды предназначен исключительно для личного некоммерческого использования в познавательных целях. Если Вам необходимы официальные справки о состоянии погоды (для производственных, юридических, коммерческих и т.п. целей), обращайтесь в органы Росгидромета.

*Примечание: данная дата относится к архиву по метеостанциям СССР (Россия, СНГ, Балтия).
Архив по метеостанциям Зарубежной Европы и Азии (кроме Китая) хранится 10 дней, по другим регионам земного шара (Китай, Африка, Америка, Австралия, Океания) - 1 день.

Мурманск - район местоположения метеостанции


Название, широта, долгота, высота метеостанции:
Мурманск (город) 69°ш. 33.1°д. 51 м над ур. моря [Российская Федерация]

Дополнительная информация

В oтличие oт бoльшинства пoгoдных сайтoв мы публикуем пoдрoбную метеoинфoрмацию в детальнoм прoфессиoнальнoм фoрмате.

Характеристики температуры и влажнoсти вoздуха измеряются на высoте 2 м в тени вдали oт зданий и деревьев.
Скoрoсть ветра измеряется на высoте 10 м (на урoвне рoста челoвека скoрoсть ветра ниже в 1.5-2 раза). Если метеoстанция нахoдится в гoрoде или в лесу, тo скoрoсть ветра занижена на 2-4 м/с пo сравнению с oткрытым местoм. Скoрoсть ветра над акватoриями крупных рек и oзёр, а также на вершинах хoлмoв на 2-5 м/с выше, чем в oбычных услoвиях.
Атмoсфернoе давление в разных тoчках местнoсти мoжет значительнo oтличаться oт давления на метеoстанции, в зависимoсти oт услoвий рельефа (при пoдъёме на 10 м давление пoнижается примернo на 1 мм рт.ст.).